Weather in Daurskoye

Russia / Krasnoyarsk Krai     55°13′29″N   91°58′04″E
temp.,
°C
wind,
m/s
gust,
m/s
humid.,
%
clouds,
%
prec.,
mm/h
press.,
hPa
HPBL,
m
3 march, wed
wed301:00−15wsw1197100 0.7 101720
04:00−18wsw1198100 0.1 101720
07:00−18wnw1198100 0.1 101820
10:00−16s009499 0.1 1019112
13:00−13ne119198 0.1 1019215
16:00−13ese119165 0.0 1020145
19:00−17se119563 0.0 102220
22:00−16e009278 0.0 102420
4 march, thu
thu401:00−16ene119181 0.0 102420
04:00−14nne009693 0.1 102520
07:00−14ese119689 0.3 102620
10:00−12sse119187 0.0 102755
13:00−6ssw357845 0.0 1025395
16:00−5ssw357946 0.0 1024269
19:00−8s348373 0.0 102470
22:00−8ssw3483100 0.0 102349
5 march, fri
fri501:00−8ssw3482100 0.0 102129
04:00−11ssw2386100 0.0 102123
07:00−11sse128682 0.0 102022
10:00−7ssw1285100 0.0 101966
13:00−2ssw377486 0.0 1016521
16:00−2ssw4776100 0.0 1015394
19:00−5ssw61378100 0.0 1017250
22:00−6ssw6117967 0.0 1018172
6 march, sat
sat601:00−5ssw7137783 0.0 1020289
04:00−5ssw71575100 0.0 1019585
07:00−5sw81474100 0.0 1021425
10:00−4sw61275100 0.0 1021717
13:00−2sw81275100 0.0 10211352
16:00−1ssw71476100 0.1 10181275
19:00−1ssw61379100 0.1 1017483
22:00−2ssw71474100 0.0 1016391
7 march, sun
sun701:00−2ssw81764100 0.0 1014407
04:00−2ssw81669100 0.0 1013417
07:00−2ssw91766100 0.0 1014470
10:00−2ssw81570100 0.0 1015494
13:000sw71172100 0.0 10161044
16:00+1sw61176100 0.0 1016695
19:00−2ssw588198 0.0 1017129
22:00−3ssw458380 0.0 101780